TITAN 3C TRANSTAGE DEB, 26525

Orbit data source: Space-Track

TITAN 3C TRANSTAGE DEB, 26525 is space debris in HEO originally from a launch on Tue, 21 Dec 1965 UTC launched from the Air Force Eastern Test Range (AFETR). Debris objects in space refer to the collection of defunct objects orbiting the Earth. Examples of debris include non-operational satellites, rocket bodies, and fragments generated from explosions, collisions, or faulty payload assembly.

Loading next visibility...
Identifier
26525, 1965-108AL
Orbit
HEO
Last TLE update
1 day ago
Origin
Manufacturer
Unknown
Mission
Spacecraft
Bus & Motor
Unknown
Mass
Unknown
Launch date (UTC)
1965-12-21 (60 years ago)
Launch vehicle
Unknown
Launch site
Air Force Eastern Test Range (AFETR)
Object type
Payload
Rocket body
Debris
Shape & HBR
Unknown
Radar Cross Section
Medium (>0.1 m² and <1 m²)

Expand to show TLE details & history

TLE from 1 day ago
0 TITAN 3C TRANSTAGE DEB
1 26525U 65108AL  25187.49079797  .00000128  00000-0  22735-2 0  9997
2 26525  26.5926 317.1111 6717908 126.2884 351.6998  2.83204679260927
Epoch: 2025-07-06T11:46Z
TLE epoch observation values (Epoch: 2025-07-06T11:46:44.944Z)
Latitude
25.7209°
Longitude
-71.21946°
Altitude
1,766.838 km
Speed
8.89 km/s
True Right ascension
02h 00m 43s
True Declination
25° 36' 12"
Sunlit
Object was in daylight at epoch
Visualization orbit readout
Latitude
-10.00664°
Longitude
-165.52436°
Altitude
21,354.042 km
Speed
3.14 km/s
Apparent Right ascension
19h 45m 40s
Apparent Declination
-15° 25' 15"
Sunlit
Object is in daylight
Visualization observer readout
Local Sidereal Time
07:57:48
Azimuth
7.029° NNE
Elevation
-65.362°
Doppler factor
1
Orbital elements
Apogee altitude
28,906.935 km
Perigee altitude
549.096 km
Semi-major axis
21,106.153 km
Eccentricity
0.67179
Inclination
26.5926°
RAAN
317.1111°
Arg. of periapsis
126.2884°
True anomaly
Unknown
Mean anomaly
351.6998°
Eccentric anomaly
Unknown
Mean motion
0.70783 °/min
Orbital period
508.6 mins
BSTAR
0.0022735
Loading maneuver chart data...
Loading SW <> Apogee altitude chart data...

TITAN 3C TRANSTAGE DEB Visibility forecast

Observer location: undefined°, undefined°

Span
Click to sort rows by Start time (UTC) header in descending order
Start Az.
Max El. time (UTC)
Max El. Az.
Max El.
End time (UTC)
End Az.
21 mins2025-07-08 14:22:09.410Z252.9° W2025-07-08 14:39:09.410Z195.667° SSW28.893°2025-07-08 14:43:09.410Z137.144° SSE
|